Regional Weather Roundup
Issued by NWS

Home | Current Version | Previous Version | Graphics & Text | Print | Product List | Glossary On
Versions: 1 2 3 4 5 6 7 8 9 10 11 12 13 14 15 16 17 18 19 20 21 22 23 24 25 26 27 28 29 30 31 32 33 34 35 36 37 38 39 40 41 42 43 44 45 46 47 48 49 50
000
ASUS43 KDMX 030607
RWRIA

WEATHER ROUNDUP FOR IOWA
NATIONAL WEATHER SERVICE DES MOINES IA
100 AM CDT WED SEP 03 2014

NOTE: "FAIR" INDICATES FEW OR NO CLOUDS BELOW 12,000 FEET WITH NO
SIGNIFICANT WEATHER AND/OR OBSTRUCTIONS TO VISIBILITY.

* - THESE STATIONS ARE NOT NWS STATIONS...THUS NOT UNDER NWS
QUALITY CONTROL.  THEY ALSO DO NOT REPORT WEATHER SUCH
AS PRECIPITATION OR FOG.

IAZ001>003-012>014-020>022-031>034-043>046-030700-
   NORTHWEST IOWA

CITY           SKY/WX    TMP DP  RH WIND       PRES   REMARKS
CARROLL *      MOCLDY    57  57 100 CALM      29.95F
CHEROKEE *     MOCLDY    60  59  98 S5        29.92F
DENISON *      CLEAR     61  61 100 SE5       29.91F
LE MARS *      PTCLDY    63  59  88 S8        29.90F
ORANGE CITY *  PTCLDY    63  55  77 SE6       29.91F
SHELDON *      CLEAR     61  59  94 SE7       29.90S
SIOUX CITY       N/A     65  60  84 SE7       29.89F
6HR MIN TEMP:  63; 6HR MAX TEMP:  76;

SPENCER          N/A     59  56  89 S7        29.93S
6HR MIN TEMP:  59; 6HR MAX TEMP:  73;

STORM LAKE *   CLEAR     59  59 100 S8        29.94F
$$

IAZ055>058-069>071-079>083-090>094-030700-
   SOUTHWEST IOWA

CITY           SKY/WX    TMP DP  RH WIND       PRES   REMARKS
ATLANTIC *     CLEAR     59  57  94 N3        29.94F
AUDUBON *      CLEAR     57  55  94 CALM      29.96F
CLARINDA *     CLEAR     59  59 100 CALM      29.97R
COUNCIL BLFS * CLEAR     64  61  88 SE6       29.92F
CRESTON *      CLEAR     61  59  94 SE6       29.97S
HARLAN  *      CLEAR     57  57 100 CALM      29.97F
LAMONI           N/A     67  59  75 SE6       29.97F
6HR MIN TEMP:  67; 6HR MAX TEMP:  77;

RED OAK *        N/A     63  59  88 CALM      29.94F
SHENANDOAH *   CLEAR     64  63  94 SE7       29.95S
$$

IAZ047>049-059>061-072>074-084-030700-
   CENTRAL IOWA

CITY           SKY/WX    TMP DP  RH WIND       PRES   REMARKS
AMES             N/A     59  58  96 CALM      29.97S
6HR MIN TEMP:  58; 6HR MAX TEMP:  74;

ANKENY *       CLEAR     61  59  94 CALM      29.96F
CHARITON *     CLEAR     61  61 100 SE5       29.98S
DES MOINES       N/A     66  60  81 CALM      29.95F
6HR MIN TEMP:  66; 6HR MAX TEMP:  78;

GRINNELL*        N/A     61  57  88 S5        29.99S
KNOXVILLE *    CLEAR     64  59  82 SE6       29.96F
MARSHALLTOWN     N/A     60  58  92 SE5       29.97S
6HR MIN TEMP:  59; 6HR MAX TEMP:  74;

PELLA *          N/A     61  60  96 CALM      29.99S
PERRY *          N/A     59  59 100 SE3       29.96F
$$

IAZ004>006-015-016-023>025-035-036-030700-
   NORTH CENTRAL IOWA

CITY           SKY/WX    TMP DP  RH WIND       PRES   REMARKS
ALGONA *       CLEAR     59  57  94 S7        29.95S
CLARION *      CLEAR     59  59 100 S5        29.96S
ESTHERVILLE      N/A     57  56  96 S8        29.92F
6HR MIN TEMP:  56; 6HR MAX TEMP:  71;

FORT DODGE *     N/A     61  57  88 CALM      29.96F
MASON CITY       N/A     56  55  97 S6        29.97R
6HR MIN TEMP:  56; 6HR MAX TEMP:  74;

FOREST CITY *  CLEAR     54  54 100 CALM      29.96R
IOWA FALLS *     N/A     61  57  88 S5        29.98S
$$

IAZ007>011-017>019-026>030-037>042-050>054-066-030700-
   NORTHEAST IOWA

CITY           SKY/WX    TMP DP  RH WIND       PRES   REMARKS
CEDAR RAPIDS     N/A     58  58 100 S5        29.98R
6HR MIN TEMP:  58; 6HR MAX TEMP:  73;

CHARLES CITY * CLEAR     59  57  94 S5        29.97S
CLINTON *        N/A     59  55  88 CALM      30.01S
DECORAH *      CLEAR     61  57  88 CALM      29.96R
DUBUQUE          N/A     59  57  93 CALM      29.99S
6HR MIN TEMP:  57; 6HR MAX TEMP:  72;

MONTICELLO *   CLEAR     57  57 100 CALM      29.98S
OELWEIN *      CLEAR     57  57 100 S5        29.98S
WATERLOO         N/A     62  58  86 CALM      29.96R
6HR MIN TEMP:  60; 6HR MAX TEMP:  75;

$$

IAZ064-065-067-068-078-030700-
   EAST CENTRAL IOWA

CITY           SKY/WX    TMP DP  RH WIND       PRES   REMARKS
DAVENPORT        N/A     60  58  92 CALM      30.00R
6HR MIN TEMP:  59; 6HR MAX TEMP:  73;

IOWA CITY        N/A     61  59  93 CALM      29.99S
6HR MIN TEMP:  60; 6HR MAX TEMP:  76;

MT. PLEASANT *   N/A     61  60  96 S3        30.00R
MUSCATINE *    CLEAR     61  59  94 CALM      29.99S FOG
QUAD CITIES      N/A     61  59  93 CALM      29.99S
6HR MIN TEMP:  61; 6HR MAX TEMP:  77;

$$

IAZ062-063-075>077-085>089-095>099-030700-
   SOUTHEAST IOWA

CITY           SKY/WX    TMP DP  RH WIND       PRES   REMARKS
BURLINGTON       N/A     62  61  96 CALM      29.99S
6HR MIN TEMP:  62; 6HR MAX TEMP:  76;

FAIRFIELD *    CLEAR     61  59  94 CALM      30.00R
FORT MADISON * CLEAR     64  63  94 CALM      30.01R
KEOKUK *       CLEAR     64  63  94 CALM      29.99S
OSKALOOSA *      N/A     60  58  94 S6        29.99S
CENTERVILLE *  CLEAR     59  59 100 SE3       30.00S
OTTUMWA          N/A     60  59  96 S3        29.99R
6HR MIN TEMP:  60; 6HR MAX TEMP:  74;

WASHINGTON *   CLEAR     59  59 100 S5        29.99S
$$

ABBREVIATIONS USED IN REMARKS
   TC - TEMPERATURES IN CELSIUS
  WCI - WIND CHILL INDEX
   HX - HEAT INDEX
  VSB - VISIBILITY
$$



USA.gov is the U.S. government's official web portal to all federal, state and local government web resources and services.